星链-30506 (STARLINK-30506 )

导读

STARLINK-30506是美国SpaceX星链星座的成员卫星,于2023年10月13日发射升空,归入美国太空探索技术公司打造的低轨卫星互联网星座组网。星链系统旨在为全球提供高速卫星互联网接入服务,这颗卫星承担着扩展星座覆盖容量、提升网络服务性能的任务。

Basic Information
目录编号:
58072
目录名称:
STARLINK-30506
国际标识:
2023-158X
轨道中心:
EARTH
卫星名称:
星链-30506
卫星全名:
星链-30506 (STARLINK-30506 )
卫星状态:
在轨 (已飞行981 天)
发射日期:
2023-10-13 UTC
国别 :
美国 (US)
星等 :
--
Orbit Information
数据来源 国际轨道数据 AOE轨道数据
星历时间 2026-06-19T09:47:13+0800
1天前
查看轨道信息
2026-06-17T01:00:00+0800
3天前
查看轨道信息
半长轴 6861.19km 6861.148km
偏心率 0.0001543 0.0001898
轨道倾角 43.002° 43.008°
近地点辐角 270.961° 291.905°
升交点赤经 174.625° 188.000°
平近点角 89.106° 0.969°
近地点 481.994km 481.708km
远地点 484.112km 484.314km
周期 94.267分钟 94.266分钟
每日圈数 15.27579 15.27593
Detailed Information
固有亮度:
5
最大亮度:
0.3
卫星平台:
Starlink v2.0 mini
覆盖范围:
全球
运营商:
太空探索技术公司
运营商所在国:
美国
制造商(研发单位):
太空探索技术公司
制造商所在国:
美国
使用方式:
暂无
Satellite Introduction
星链(Starlink)计划是由太空探索技术公司(SpaceX)提出的一个巨型低轨卫星互联网星座项目,计划在2019年至2024年间在太空搭建由约1.2万颗卫星组成的“星链”网络,其中1584颗将部署在地球上空550千米处的近地轨道,并从2020年开始工作。该卫星仍在工作。
2D Orbit Map
3D Orbit Map
Orbit Altitude Analysis Chart
Orbit Inclination Analysis Chart
Orbit Comprehensive Analysis Chart
View Comprehensive Chart